Location: Krakow
(50.0830°N, 19.9170°E)
Time: 19:17:12
(UTC+01:00)

Transit 2A - Pass Details

Date: 11 February 2023
Orbit: 591 x 964 km, 66.7° (Epoch: 21 March)

Event Time Altitude Azimuth Distance (km) Brightness Sun altitude
Rises 01:30:07 0° 310° (NW) 3,563 - -49.2°
Reaches altitude 10° 01:34:02 10° 285° (WNW) 2,664 - -48.8°
Maximum altitude 01:36:52 13° 258° (WSW) 2,436 - -48.5°
Drops below altitude 10° 01:39:45 10° 231° (SW) 2,695 - -48.2°
Sets 01:43:46 0° 207° (SSW) 3,636 - -47.8°
